Galesburg, IL

10:55 AM CDT on March 29, 2017 (GMT -0500)
Galesburg Municipal

Weather History for KGBG - March, 2014

Change the Weather History Date:

Saturday, March 8, 2014

  Actual Average Record
Temperature  
Mean Temperature 30 °F -  
Max Temperature 33 °F 45 °F 75 °F (1974)
Min Temperature 27 °F 25 °F 7 °F (1967)
Degree Days  
Heating Degree Days 35    
Moisture  
Dew Point 32 °F    
Average Humidity 99    
Maximum Humidity 100    
Minimum Humidity 91    
Precipitation  
Precipitation 0.00 in - - ()
Sea Level Pressure  
Sea Level Pressure 30.17 in    
Wind  
Wind Speed 6 mph (North)    
Max Wind Speed 14 mph    
Max Gust Speed -    
Visibility 4 miles    
Events Rain , Snow    
Averages and records for this station are not official NWS values.
T = Trace of Precipitation, MM = Missing Value Source: NWS Daily Summary

Daily Weather History Graph

Daily Weather History Graph

Search for Another Location

Airport or City:

Trip Planner

Search our weather history database for the weather conditions in past years. The results will help you decide how hot, cold, wet, or windy it might be!

Date:

Astronomy

Mar. 08, 2014 Rise Set
Actual Time 6:24 AM CST 6:00 PM CST
Civil Twilight 5:57 AM CST 6:28 PM CST
Nautical Twilight 5:25 AM CST 7:00 PM CST
Astronomical Twilight 4:53 AM CST 7:32 PM CST
Moon 11:03 AM CST (3/8) 1:01 AM CST (3/8)
Length of Visible Light 12h 30m
Length of Day
11h 35m
First Quarter, 52% of the Moon is Illuminated
Mar 8
First Quarter
Mar 16
Full
Mar 23
Last Quarter
Mar 30
New
Apr 7
First Quarter

Hourly Weather History & Observations

Time (CST) Temp. Windchill Dew Point Humidity Pressure Visibility Wind Dir Wind Speed Gust Speed Precip Events Conditions
12:15 AM 32.9 °F 26.7 °F 32.4 °F 98% 30.02 in 3.0 mi WNW 6.9 mph - N/A   Scattered Clouds
12:35 AM 32.9 °F 26.7 °F 32.4 °F 98% 30.01 in 3.0 mi NW 6.9 mph - N/A   Overcast
12:55 AM 32.9 °F 27.5 °F 32.4 °F 98% 30.02 in 3.0 mi NW 5.8 mph - N/A   Overcast
1:15 AM 32.9 °F 28.5 °F 32.5 °F 99% 30.02 in 3.0 mi NW 4.6 mph - N/A   Overcast
1:35 AM 32.9 °F 29.8 °F 32.7 °F 99% 30.02 in 3.0 mi NW 3.5 mph - N/A   Overcast
1:55 AM 32.9 °F 29.8 °F 32.9 °F 100% 30.03 in 2.0 mi WNW 3.5 mph - N/A Rain Rain
2:15 AM 32.7 °F 29.6 °F 32.7 °F 100% 30.03 in 2.0 mi WNW 3.5 mph - N/A   Overcast
2:35 AM 32.5 °F 26.2 °F 32.5 °F 100% 30.02 in 2.0 mi North 6.9 mph - N/A   Overcast
2:55 AM 32.9 °F 26.7 °F 32.9 °F 100% 30.03 in 2.0 mi NNW 6.9 mph - N/A   Overcast
3:15 AM 32.9 °F 26.7 °F 32.9 °F 100% 30.03 in 2.0 mi NNW 6.9 mph - N/A   Overcast
3:35 AM 32.9 °F 27.5 °F 32.9 °F 100% 30.04 in 2.5 mi NNW 5.8 mph - N/A   Overcast
3:55 AM 33.1 °F 27.7 °F 33.1 °F 100% 30.05 in 2.5 mi NNW 5.8 mph - N/A   Overcast
4:15 AM 33.1 °F 25.5 °F 33.1 °F 100% 30.04 in 2.5 mi North 9.2 mph - N/A   Light Drizzle
4:35 AM 33.1 °F 26.1 °F 33.1 °F 100% 30.05 in 2.5 mi North 8.1 mph - N/A Rain Light Rain
4:55 AM 32.9 °F 25.9 °F 32.9 °F 100% 30.06 in 2.5 mi North 8.1 mph - N/A   Overcast
5:15 AM 33.1 °F 26.1 °F 33.1 °F 100% 30.08 in 2.5 mi NNW 8.1 mph - N/A   Overcast
5:35 AM 32.9 °F 25.3 °F 32.9 °F 100% 30.09 in 2.5 mi North 9.2 mph - N/A   Overcast
5:55 AM 32.9 °F 25.3 °F 32.9 °F 100% 30.09 in 2.5 mi NNW 9.2 mph - N/A   Overcast
6:15 AM 32.9 °F 24.7 °F 32.9 °F 100% 30.10 in 2.5 mi North 10.4 mph - N/A   Overcast
6:35 AM 32.9 °F 25.3 °F 32.9 °F 100% 30.11 in 1.8 mi North 9.2 mph - N/A   Overcast
6:55 AM 32.9 °F 25.3 °F 32.9 °F 100% 30.11 in 1.5 mi North 9.2 mph - N/A   Overcast
7:15 AM 32.9 °F 24.1 °F 32.9 °F 100% 30.11 in 2.0 mi North 11.5 mph - N/A   Overcast
7:35 AM 32.9 °F 24.7 °F 32.5 °F 99% 30.12 in 2.0 mi North 10.4 mph - N/A   Overcast
7:55 AM 32.9 °F 24.1 °F 32.9 °F 100% 30.13 in 1.8 mi North 11.5 mph - N/A   Overcast
8:15 AM 32.9 °F 23.2 °F 32.9 °F 100% 30.14 in 1.8 mi North 13.8 mph - N/A   Overcast
8:35 AM 32.9 °F 23.7 °F 32.9 °F 100% 30.14 in 1.8 mi North 12.7 mph - N/A   Overcast
8:55 AM 32.9 °F 24.7 °F 32.9 °F 100% 30.16 in 1.8 mi North 10.4 mph - N/A   Overcast
9:15 AM 33.1 °F 24.4 °F 32.9 °F 99% 30.17 in 2.0 mi North 11.5 mph - N/A Snow Light Snow
9:30 AM 33.1 °F 24.9 °F 32.9 °F 99% 30.17 in 1.5 mi North 10.4 mph - N/A Snow Light Snow
9:55 AM 33.1 °F 26.1 °F 32.4 °F 97% 30.18 in 3.0 mi NE 8.1 mph - N/A Snow Light Snow
10:15 AM 33.3 °F 25.1 °F 32.0 °F 95% 30.19 in 5.0 mi NNE 10.4 mph - N/A   Overcast
10:35 AM 33.4 °F 25.4 °F 31.5 °F 92% 30.19 in 5.0 mi NNE 10.4 mph - N/A   Overcast
10:55 AM 33.3 °F 25.1 °F 31.1 °F 92% 30.20 in 7.0 mi NNE 10.4 mph - N/A   Overcast
11:15 AM 33.4 °F 25.9 °F 31.1 °F 91% 30.21 in 7.0 mi NE 9.2 mph - N/A   Overcast
11:35 AM 33.3 °F 26.4 °F 31.5 °F 93% 30.21 in 5.0 mi NNE 8.1 mph - N/A   Overcast
11:55 AM 32.9 °F 25.9 °F 31.5 °F 94% 30.22 in 4.0 mi NE 8.1 mph - N/A   Overcast
12:15 PM 32.9 °F 25.9 °F 32.0 °F 96% 30.22 in 3.0 mi NNE 8.1 mph - N/A   Overcast
12:35 PM 32.7 °F 26.4 °F 32.0 °F 97% 30.22 in 3.0 mi NNE 6.9 mph - N/A   Overcast
12:55 PM 32.4 °F 26.9 °F 32.0 °F 99% 30.22 in 2.5 mi NNE 5.8 mph - N/A   Overcast
1:15 PM 32.4 °F 26.9 °F 32.0 °F 99% 30.21 in 2.5 mi NNE 5.8 mph - N/A   Overcast
1:35 PM 32.2 °F 28.9 °F 32.0 °F 99% 30.21 in 1.8 mi North 3.5 mph - N/A   Overcast
1:55 PM 32.0 °F - 32.0 °F 100% 30.21 in 1.5 mi Calm Calm - N/A   Overcast
2:10 PM 32.0 °F 27.5 °F 32.0 °F 100% 30.21 in 1.2 mi North 4.6 mph - N/A   Overcast
2:35 PM 32.2 °F 25.0 °F 32.2 °F 100% 30.21 in 1.2 mi NNW 8.1 mph - N/A   Overcast
2:55 PM 32.0 °F 25.6 °F 32.0 °F 100% 30.21 in 2.0 mi North 6.9 mph - N/A   Overcast
3:15 PM 32.2 °F 24.4 °F 32.2 °F 100% 30.21 in 5.0 mi North 9.2 mph - N/A   Overcast
3:35 PM 32.2 °F 26.7 °F 32.0 °F 99% 30.21 in 4.0 mi North 5.8 mph - N/A   Overcast
3:55 PM 32.2 °F 27.7 °F 32.0 °F 99% 30.21 in 4.0 mi NNE 4.6 mph - N/A   Overcast
4:15 PM 32.0 °F 24.8 °F 32.0 °F 100% 30.22 in 2.5 mi NNE 8.1 mph - N/A   Overcast
4:35 PM 31.6 °F 23.7 °F 31.6 °F 100% 30.24 in 2.5 mi North 9.2 mph - N/A   Overcast
4:55 PM 31.5 °F 25.8 °F 31.5 °F 100% 30.25 in 4.0 mi North 5.8 mph - N/A   Overcast
5:15 PM 31.5 °F - 31.1 °F 99% 30.25 in 4.0 mi Calm Calm - N/A   Overcast
5:35 PM 31.6 °F - 31.1 °F 98% 30.25 in 4.0 mi Calm Calm - N/A   Overcast
5:55 PM 31.1 °F - 30.7 °F 99% 30.26 in 4.0 mi Calm Calm - N/A   Overcast
6:15 PM 31.1 °F - 30.7 °F 99% 30.26 in 4.0 mi Calm Calm - N/A   Overcast
6:35 PM 30.7 °F - 30.4 °F 99% 30.26 in 5.0 mi Calm Calm - N/A   Overcast
6:50 PM 30.7 °F - 30.7 °F 100% 30.27 in 5.0 mi Calm Calm - N/A   Overcast
7:15 PM 31.1 °F - 31.1 °F 100% 30.27 in 5.0 mi Calm Calm - N/A   Overcast
7:35 PM 31.1 °F - 31.1 °F 100% 30.28 in 5.0 mi Calm Calm - N/A   Overcast
7:55 PM 31.1 °F - 31.1 °F 100% 30.27 in 5.0 mi Calm Calm - N/A   Overcast
8:15 PM 31.1 °F - 31.1 °F 100% 30.27 in 5.0 mi Calm Calm - N/A   Overcast
8:35 PM 31.1 °F - 31.1 °F 100% 30.27 in 5.0 mi Calm Calm - N/A   Overcast
8:55 PM 31.1 °F - 31.1 °F 100% 30.28 in 5.0 mi Calm Calm - N/A   Overcast
9:15 PM 31.1 °F - 30.9 °F 99% 30.27 in 5.0 mi Calm Calm - N/A   Overcast
9:35 PM 30.7 °F - 30.7 °F 100% 30.28 in 5.0 mi Calm Calm - N/A   Overcast
9:55 PM 30.2 °F - 30.2 °F 100% 30.27 in 5.0 mi Calm Calm - N/A   Scattered Clouds
10:15 PM 29.3 °F - 29.3 °F 100% 30.27 in 4.0 mi Calm Calm - N/A   Scattered Clouds
10:35 PM 28.8 °F 25.0 °F 28.4 °F 99% 30.27 in 7.0 mi NW 3.5 mph - N/A   Scattered Clouds
10:55 PM 28.2 °F - 27.5 °F 97% 30.27 in 7.0 mi Calm Calm - N/A   Clear
11:15 PM 27.5 °F 23.6 °F 25.7 °F 93% 30.27 in 10.0 mi NW 3.5 mph - N/A   Clear
11:30 PM 27.3 °F 23.4 °F 25.3 °F 92% 30.28 in 10.0 mi NW 3.5 mph - N/A   Clear
11:55 PM 27.0 °F 23.0 °F 25.5 °F 94% 30.27 in 10.0 mi WNW 3.5 mph - N/A   Clear